sat.trackr.live / text

‹ back to catalog

STARLINK-32349

NORAD 61700 · 2024-195P

PAYLOAD ACTIVE UNKNOWN

§ Identity

Operator
Country
US
Launch date
2024-10-30
Launch site
AFWTR
Launch vehicle
Mass (kg)
RCS (m²)

Purposes: comms

External: N2YO · Heavens-Above · Gunter

§ Orbital elements

Epoch: 2026-05-25T01:31:25.275936Z

Period
94.11 min
Inclination
53.1590°
Eccentricity
0.0000986
Mean motion
15.30194928 rev/d
Perigee alt
474.6 km
Apogee alt
475.9 km
Semi-major
6,853.4 km
B*
2.2029e-5
RAAN
160.6807°
Arg perigee
83.1129°
Mean anomaly
276.9984°
Rev number
8,887

§ Raw data

STARLINK-323491 61700U 24195P   26145.06348699  .00000293  00000+0  22029-4 0  99902 61700  53.1590 160.6807 0000986  83.1129 276.9984 15.30194928 88872

JSON: /api/v1/satellites/61700 · /tle

For live sub-satellite position, see the globe view (requires WebGL).

§ Visibility from observer

Set your observer location to see the next 7 days of passes ≥ 10°. The values pass through the URL so the page stays shareable.

No JS? Fill the form by hand. The geolocation button needs JavaScript.